Location: Blandford
(50.8667°N, 2.1667°W)
Time: 02:27:28
(UTC+00:00)

Cosmos 1339 Rocket - Pass Details

Date: 09 April 2020
Orbit: 941 x 1007 km, 82.9° (Epoch: 03 June)

Event Time Altitude Azimuth Distance (km) Brightness Sun altitude
Exits shadow 22:42:38 75° 130° (SE) 1,045 4.4 -28.2°
Maximum altitude 22:42:59 77° 97° (E) 1,036 4.4 -28.2°
Drops below altitude 10° 22:49:25 10° 12° (NNE) 2,795 7.5 -28.6°
Sets 22:51:57 0° 11° (NNE) 3,746 8.4 -28.7°
